Location: Eastchurch
(51.4000°N, 0.8667°E)
Time: 00:33:27
(UTC+00:00)

Cosmos 1933 Rocket - Pass Details

Date: 19 January 2026
Orbit: 599 x 624 km, 82.5° (Epoch: 17 February)

Event Time Altitude Azimuth Distance (km) Brightness Sun altitude
Rises 17:53:24 0° 347° (NNW) 2,902 7.0 -13.6°
Reaches altitude 10° 17:55:39 10° 344° (NNW) 1,988 6.2 -13.9°
Maximum altitude 18:00:01 65° 263° (W) 679 4.0 -14.6°
Drops below altitude 10° 18:04:17 10° 183° (S) 1,956 6.3 -15.2°
Sets 18:06:30 0° 180° (S) 2,851 7.1 -15.5°
